Theta_e
285 285 286 286 285 285 285 285 284 280 280 284 282 285 284 285 285 284 284 286 288 289 290 291 292 293 294 295 297 298 299 300 301 302 303 306 307 306
284 283 283 284 283 283 283 282 282 281 279 282 281 282 283 283 284 282 281 283 285 286 287 289 290 291 292 293 294 295 296 298 298 300 301 302 301 303
282 281 281 281 279 279 280 280 279 279 277 278 280 280 280 279 280 280 280 280 280 283 286 287 288 290 289 290 291 293 294 295 296 296 298 299 300 302
280 278 278 280 278 279 279 278 278 279 277 275 277 277 277 278 278 276 278 279 279 281 284 286 287 287 287 288 289 290 291 292 293 294 295 296 298 299
278 277 277 278 278 278 278 277 278 277 277 277 275 277 276 276 275 275 276 276 278 280 281 283 284 284 285 286 287 287 287 289 291 291 292 294 295 296
279 278 277 277 278 278 278 277 277 276 276 275 274 274 274 274 273 272 271 274 273 276 279 279 280 280 282 284 284 284 285 287 288 288 290 291 292 294
277 277 277 277 279 280 278 276 275 275 274 273 271 271 271 270 270 271 270 271 272 274 273 273 273 274 276 280 280 282 284 285 287 288 291 292 292 293
275 276 276 276 277 278 278 277 276 273 273 270 269 269 269 270 271 270 269 268 266 272 269 269 273 273 274 276 280 282 283 285 286 286 286 287 288 290
274 274 274 274 275 274 274 274 273 274 273 270 267 267 267 269 269 268 268 266 266 268 268 268 271 272 273 276 278 281 283 284 283 284 285 286 287 289
273 273 273 273 274 273 271 270 269 269 268 269 268 268 269 270 269 268 266 265 265 268 270 266 270 269 271 273 277 280 281 281 282 282 284 285 286 287
272 272 273 272 274 274 269 267 265 266 267 269 269 270 270 270 270 265 260 260 259 263 267 265 267 267 269 270 274 277 278 279 280 281 282 284 284 285
270 270 273 273 272 273 268 266 262 263 262 261 262 263 265 265 267 264 263 259 259 258 266 262 264 266 263 269 270 271 271 275 278 279 281 282 282 279
267 267 268 272 270 271 269 267 265 262 260 258 258 259 260 261 262 262 263 262 259 259 264 264 263 262 262 263 266 268 270 271 272 274 280 280 280 280
265 267 267 269 268 268 267 267 264 260 257 255 255 256 257 258 259 261 261 262 263 261 263 264 259 260 259 258 260 266 267 269 271 274 274 276 277 278
265 267 267 266 265 260 265 264 258 256 254 252 252 254 256 258 259 259 259 260 260 261 263 262 260 260 259 258 258 261 263 266 271 271 271 272 272 273
260 259 263 262 262 259 256 256 255 254 252 251 252 254 255 255 254 256 254 256 255 255 260 261 260 259 257 259 259 259 263 264 268 269 269 270 271 273
249 248 249 251 252 252 251 251 253 252 251 251 250 250 252 252 253 254 254 254 252 253 255 257 259 259 259 259 257 261 264 264 266 266 267 266 268 271
246 243 245 245 247 247 246 247 248 249 249 249 248 249 249 249 250 251 253 252 252 253 253 255 256 256 256 256 265 260 262 261 263 264 265 263 265 269
243 240 242 242 243 245 244 244 245 248 244 245 246 246 247 247 248 249 250 251 252 252 253 254 255 254 251 251 257 265 259 260 262 262 264 264 265 269
240 241 242 241 241 242 242 242 243 245 244 245 244 242 243 243 246 247 249 249 250 251 252 254 255 254 252 252 253 257 265 261 261 261 263 266 270 273
240 240 239 240 240 240 240 239 239 241 242 240 239 238 242 240 245 246 248 249 251 251 251 252 255 258 256 256 254 255 258 265 265 263 264 265 264 266
240 240 240 238 239 239 239 238 239 239 240 239 241 240 241 239 245 245 247 248 249 251 252 254 255 255 255 254 253 254 256 259 263 266 269 269 265 263
243 241 241 240 239 238 236 236 237 242 240 240 241 241 239 240 242 246 246 248 249 250 252 252 253 255 254 255 254 254 255 256 257 259 262 269 270 271
Wind_Speed
6 6 5 5 5 5 3 3 3 3 3 3 4 7 9 9 14 13 13 24 24 26 27 27 29 28 28 29 30 31 31 31 32 32 31 29 27 29
6 7 6 5 6 5 6 5 5 3 3 3 4 9 11 9 12 12 14 21 24 27 28 29 29 27 27 31 31 32 33 32 32 32 32 32 32 30
7 8 8 8 6 5 4 4 3 2 4 4 4 7 9 11 10 10 10 10 11 24 28 30 27 25 32 32 32 32 31 31 30 31 32 32 32 31
7 8 8 6 6 5 3 6 5 4 5 9 8 6 9 12 11 13 10 9 10 17 29 25 24 31 34 33 31 31 32 32 31 32 31 32 32 31
7 7 7 6 6 5 4 5 5 6 5 7 8 7 7 8 12 10 11 10 9 21 20 20 27 30 32 32 31 32 31 32 32 33 34 34 34 34
7 8 8 7 8 8 7 7 7 7 7 6 8 9 7 10 8 12 13 10 13 13 11 19 25 27 27 29 30 31 31 34 36 36 35 34 34 35
6 6 9 9 13 11 6 8 8 7 6 7 8 8 9 12 13 11 12 13 13 4 10 12 12 13 13 20 23 28 35 35 35 35 34 32 32 31
6 5 6 9 11 13 13 12 11 9 10 7 6 9 12 11 11 11 11 13 10 4 14 15 11 11 11 13 28 35 34 33 34 36 37 39 36 34
6 7 7 7 9 10 12 11 12 13 13 8 9 10 11 12 12 13 13 12 11 14 15 13 8 9 12 14 33 33 29 33 36 35 33 35 35 33
7 8 8 8 10 10 9 9 10 9 11 8 9 10 10 11 12 11 12 13 12 8 11 8 10 13 14 13 28 24 31 37 35 34 34 35 37 37
7 7 8 7 12 14 8 9 9 8 11 16 15 16 17 18 17 8 8 11 10 8 5 10 9 17 16 13 8 24 33 32 32 34 35 34 35 37
5 6 11 9 12 13 8 8 6 9 10 11 10 12 13 14 18 12 9 9 8 8 6 13 11 12 13 8 13 13 15 24 33 34 33 33 35 17
3 3 5 10 11 12 11 7 9 8 10 7 7 7 8 9 8 9 10 9 8 8 13 13 11 11 8 15 12 13 12 17 16 19 26 31 36 30
3 3 4 9 10 11 9 13 14 9 5 6 6 7 8 8 8 9 11 11 10 13 14 12 8 13 13 16 12 13 15 16 15 15 14 25 32 33
3 4 6 8 10 9 13 14 9 6 6 6 6 6 7 8 10 9 10 10 12 12 10 12 10 13 11 13 15 18 20 13 15 16 14 17 18 17
5 4 5 7 10 8 4 8 6 5 4 5 5 6 7 7 7 8 7 9 9 6 11 12 12 13 13 13 13 16 15 13 16 16 17 17 16 15
4 3 3 2 3 4 4 4 4 5 5 5 5 7 7 7 7 8 7 8 8 11 12 10 14 12 11 19 13 11 14 15 15 18 20 19 18 16
4 2 2 2 2 3 3 3 2 4 3 5 4 5 6 7 8 9 8 8 9 10 12 13 14 14 12 6 12 12 12 17 16 19 18 18 18 19
3 0 1 1 2 2 2 1 3 3 2 3 3 5 6 7 7 7 8 8 9 10 11 12 13 13 16 17 9 16 16 17 18 18 16 16 19 19
2 3 2 3 2 2 2 2 3 4 2 3 3 4 4 4 6 7 8 8 9 10 11 11 12 13 12 12 15 18 27 16 16 18 18 17 15 32
2 2 4 3 3 2 2 3 3 3 3 3 3 3 4 2 6 5 7 11 11 8 11 12 13 21 11 11 11 14 15 30 24 17 18 15 18 17
3 3 3 3 3 3 3 2 3 3 3 3 4 4 4 2 5 6 6 8 9 8 9 10 13 11 10 11 14 19 17 20 29 32 23 26 17 15
4 4 3 3 3 3 2 3 3 4 3 4 4 4 3 4 3 5 6 7 8 9 9 11 11 10 10 11 13 14 20 23 19 21 21 38 38 35
Wind_Direction
48 42 49 39 35 29 27 32 13 332 296 335 342 21 351 342 341 347 340 337 340 341 338 336 336 335 334 334 332 328 324 322 321 320 319 315 322 317
51 49 43 40 33 16 27 17 29 355 281 10 343 327 332 340 339 340 333 334 335 335 334 335 334 334 335 331 328 325 322 319 319 316 316 317 315 311
51 45 39 40 33 18 16 17 17 1 307 294 302 317 327 330 335 335 325 327 327 327 330 333 331 330 333 328 326 324 321 319 317 316 313 313 312 311
61 58 44 42 26 1 355 17 357 338 335 318 311 331 327 331 330 328 330 326 322 323 327 327 328 332 329 327 327 325 321 318 316 314 311 310 310 310
72 56 40 28 38 0 5 11 3 345 332 318 314 324 325 334 331 331 331 327 325 324 323 325 330 329 326 325 324 324 323 319 319 317 311 308 305 303
76 66 50 23 17 359 17 8 2 345 344 333 328 332 330 344 334 333 334 337 328 322 323 329 327 323 319 320 322 321 319 320 317 314 312 308 306 302
47 67 49 27 7 5 14 4 2 352 347 352 338 332 336 345 346 334 325 328 328 310 334 321 323 313 313 315 315 314 319 315 315 312 309 308 304 300
54 49 48 27 358 9 12 9 17 359 1 350 330 335 335 333 332 333 327 336 331 47 329 311 309 307 305 314 311 316 312 315 317 320 315 309 305 303
49 36 31 20 0 10 10 15 16 10 15 351 343 338 327 332 334 330 330 322 301 310 306 304 312 295 307 308 308 310 310 320 318 315 316 313 308 308
51 41 28 15 7 18 7 14 10 7 3 2 348 332 331 341 340 337 329 311 301 292 317 285 330 308 315 300 302 302 322 317 319 318 315 315 315 311
55 38 15 17 8 22 17 11 359 3 349 356 355 355 356 353 354 344 347 345 328 332 320 331 329 319 312 300 300 324 313 320 316 317 318 315 317 317
40 29 1 23 16 23 28 17 348 2 350 350 353 357 359 353 358 1 341 333 328 318 351 332 330 350 317 296 326 308 314 312 319 312 311 319 322 313
55 23 353 19 22 23 28 25 13 17 352 349 342 343 352 351 346 344 337 327 317 290 303 328 319 322 301 304 315 309 302 319 310 308 306 321 316 316
56 25 3 23 33 19 24 26 24 22 359 357 353 353 349 343 337 333 331 320 313 301 305 318 301 313 307 302 291 312 314 308 305 307 323 313 313 311
63 31 39 34 39 27 22 26 30 17 9 6 353 340 332 324 324 326 323 312 311 302 318 309 307 305 300 283 290 303 308 311 301 326 315 313 312 309
59 20 50 52 47 47 9 17 19 14 4 344 329 321 322 334 335 338 323 331 320 312 322 320 317 310 302 287 293 293 297 302 316 316 310 311 306 302
89 30 15 3 13 12 5 358 3 6 4 345 334 335 336 336 334 334 325 328 330 326 328 326 325 311 294 296 296 290 307 310 320 313 320 314 308 305
54 61 1 360 8 345 344 330 321 354 340 337 328 328 327 329 327 327 327 331 329 328 327 329 330 336 331 274 308 318 314 318 316 319 318 313 307 312
98 157 200 258 277 303 305 302 295 316 308 313 309 318 324 322 328 325 326 327 328 330 327 328 335 345 339 332 299 320 321 318 319 319 317 311 305 308
112 173 216 224 247 264 294 283 299 312 311 305 308 302 305 302 321 325 324 320 323 323 326 330 339 342 330 318 312 301 321 319 323 319 316 309 298 307
205 214 214 226 238 247 258 269 254 282 280 304 296 287 299 302 310 305 308 315 319 324 328 328 324 316 306 305 317 320 320 327 329 320 316 329 328 321
218 222 237 225 234 236 257 256 284 283 287 289 283 287 286 264 293 304 307 313 316 317 310 311 319 327 330 336 326 324 323 329 331 337 342 352 340 335
226 218 230 230 223 234 233 252 251 275 265 265 272 275 279 307 285 284 293 298 302 314 319 323 325 331 331 334 328 329 330 338 339 338 339 349 347 348